Location: Allie Creek
(37.5926°N, 89.8526°W)
Time: 18:28:13
(UTC+00:00)

SPOT 1/Viking Rocket - Pass Details

Date: 26 September 2023
Orbit: 776 x 791 km, 98.3° (Epoch: 08 December)

Event Time Altitude Azimuth Distance (km) Brightness Sun altitude
Exits shadow 02:04:25 83° 174° (S) 791 3.4 -26.6°
Maximum altitude 02:04:37 89° 253° (WSW) 786 3.4 -26.6°
Drops below altitude 10° 02:09:48 10° 347° (NNW) 2,337 6.4 -27.6°
Sets 02:12:07 0° 348° (NNW) 3,267 7.2 -28.0°
